Regional Weather Roundup
Issued by NWS

Home | Current Version | Previous Version | Text Only | Print | Product List | Glossary Off
Versions: 1 2 3 4 5 6 7 8 9 10 11 12 13 14 15 16 17 18 19 20 21 22 23 24 25 26 27 28

000
ASUS45 KCYS 242210
RWRWY

WYOMING REGIONAL WEATHER ROUNDUP
NATIONAL WEATHER SERVICE CHEYENNE WY
400 PM MDT SUN JUL 24 2016

NOTE:  "FAIR" INDICATES FEW OR NO CLOUDS BELOW 12,000 FEET
WITH NO SIGNIFICANT WEATHER AND/OR OBSTRUCTIONS TO VISIBILITY.

WYZ001-242300-
YELLOWSTONE NATIONAL PARK

CITY           SKY/WX    TMP DP  RH WIND       PRES   REMARKS
LK YELLOWSTONE   N/A     74  19  12 VRB5      30.35S
W YELLOWSTONE  NOT AVBL

$$
WYZ002>013-054>058-071-098>099-242300-
NORTHERN WYOMING

CITY           SKY/WX    TMP DP  RH WIND       PRES   REMARKS
JACKSON        SUNNY     82  25  12 S6G16     30.23F
CODY           FAIR      84  39  20 E8        30.12F
GREYBULL       FAIR      90  28  11 E6        30.05F
WORLAND        FAIR      90  32  12 VRB5      30.06F
SHERIDAN       FAIR      90  39  16 N3        30.06F
BUFFALO        FAIR      87  40  19 SE13      30.14S
GILLETTE       FAIR      86  40  19 SE10G26   30.12S
HULETT         MOCLDY    88  41  19 SE3       30.14S
NEWCASTLE      FAIR      86  36  16 S14G25    30.15F

$$
WYZ014>020-022>026-101>103-242300-
CENTRAL WYOMING

CITY           SKY/WX    TMP DP  RH WIND       PRES   REMARKS
BIG PINEY      FAIR      84  22  10 W9        30.27S
PINEDALE       FAIR      81  27  13 N14       30.28F
DUBOIS         FAIR      79  14   8 N7G16     30.27S
LANDER         FAIR      88  34  14 N9        30.15F
RIVERTON       FAIR      86  23  10 E8        30.15F
CASPER         FAIR      86  32  14 W7        30.16F
DOUGLAS          N/A    N/A N/A N/A MISG      30.14F

$$
WYZ021-027>030-104>119-242300-
SOUTHERN WYOMING

CITY           SKY/WX    TMP DP  RH WIND       PRES   REMARKS
EVANSTON       FAIR      85  17   8 SW9G26    30.28S
KEMMERER         N/A    N/A N/A N/A SW16G25   30.29F
FORT BRIDGER   FAIR      88  18   8 W8G24     30.29F
ROCK SPRINGS   FAIR      87  15   7 W23       30.24S
DIXON          FAIR      89  28  11 W7        30.24F
RAWLINS        FAIR      86  20   9 VRB6G20   30.25F
SARATOGA       FAIR      82  27  13 W8G16     30.27S
LARAMIE        FAIR      81  37  20 S8        30.28S
CHEYENNE       FAIR      69  55  60 SE15G28   30.22F
TORRINGTON     LGT RAIN  76  60  57 E21G28    30.10F
PINE BLUFFS    TSTM      66  50  55 N7G30     30.22R

$$




USA.gov is the U.S. government's official web portal to all federal, state and local government web resources and services.